Simultaneous Nadir Overpasses (SNOs) Predictions

Prediction of SNOs near equator between NOAA-19 and NPP Satellite Orbit:

Table of predicted SNOs near equator for the next 14.0 days since TLE Epoch: 2/2/2013
Index Date (NOAA-19) Time (NOAA-19) NOAA-19 Lat,Lon Date (NPP) Time (NPP) NPP Lat,Lon Distance(km) Time Diff (sec)
1 02/11/2013 00:25:07 -29.97, 12.48 02/11/2013 00:17:17 -29.76, 11.50 98.09 471
2 02/11/2013 01:16:16 29.96, 179.70 02/11/2013 01:08:05 29.77, 178.79 90.10 491
3 02/11/2013 02:07:12 -29.99, -13.04 02/11/2013 01:58:47 -29.81, -13.89 84.46 505
4 02/11/2013 02:58:21 29.98, 154.18 02/11/2013 02:49:36 29.83, 153.40 76.51 525
5 02/11/2013 03:49:16 -29.94, -38.55 02/11/2013 03:40:17 -29.82, -39.27 70.96 539
6 02/11/2013 04:40:26 29.99, 128.65 02/11/2013 04:31:07 29.89, 128.01 62.99 559
7 02/11/2013 05:31:21
